Cheyenne F E Warren, WY

5:46 AM MDT on June 27, 2017 (GMT -0600)
Cheyenne F E Warren

Weather History for KFEW - May, 2014

Change the Weather History Date:

Thursday, May 29, 2014

  Actual Average (KCYS) Record (KCYS)
Temperature  
Mean Temperature 60 °F -  
Max Temperature 79 °F 69 °F 91 °F (2000)
Min Temperature 40 °F 43 °F 16 °F (1947)
Degree Days  
Heating Degree Days 6    
Growing Degree Days 10 (Base 50)    
Moisture  
Dew Point 46 °F    
Average Humidity 55    
Maximum Humidity 95    
Minimum Humidity 30    
Precipitation  
Precipitation 0.01 in - - ()
Sea Level Pressure  
Sea Level Pressure 29.92 in    
Wind  
Wind Speed 8 mph (SSE)    
Max Wind Speed 29 mph    
Max Gust Speed 37 mph    
Visibility 12 miles    
Events Rain , Thunderstorm    
Averages and records for this station are not official NWS values.
T = Trace of Precipitation, MM = Missing Value Source: NWS Daily Summary

Daily Weather History Graph

Daily Weather History Graph

Search for Another Location

Airport or City:

Trip Planner

Search our weather history database for the weather conditions in past years. The results will help you decide how hot, cold, wet, or windy it might be!

Date:

Astronomy

May. 29, 2014 Rise Set
Actual Time 5:30 AM MDT 8:23 PM MDT
Civil Twilight 4:57 AM MDT 8:56 PM MDT
Nautical Twilight 4:16 AM MDT 9:37 PM MDT
Astronomical Twilight 3:28 AM MDT 10:25 PM MDT
Moon 6:26 AM MDT (5/29) 9:15 PM MDT (5/29)
Length of Visible Light 15h 58m
Length of Day
14h 52m
New Moon, 1% of the Moon is Illuminated
May 29
New Moon
Jun 5
First Quarter
Jun 12
Full
Jun 19
Last Quarter
Jun 27
New

Hourly Weather History & Observations

Time (MDT) Temp. Windchill Dew Point Humidity Pressure Visibility Wind Dir Wind Speed Gust Speed Precip Events Conditions
12:56 AM 52.0 °F - 44.2 °F 75% 29.86 in 12.0 mi SSW 5.8 mph - N/A   Clear
1:56 AM 48.6 °F - 42.3 °F 79% 29.86 in 12.0 mi SW 6.9 mph - N/A   Clear
2:56 AM 47.5 °F - 42.4 °F 83% 29.86 in 12.0 mi NW 5.8 mph - N/A   Clear
3:56 AM 43.9 °F - 40.5 °F 88% 29.86 in 12.0 mi SW 2.3 mph - N/A   Clear
4:56 AM 43.9 °F 41.3 °F 41.2 °F 90% 29.85 in 12.0 mi WNW 4.6 mph - N/A   Clear
5:56 AM 40.8 °F 38.8 °F 39.6 °F 95% 29.88 in 12.0 mi West 3.5 mph - N/A   Clear
6:56 AM 53.4 °F - 46.6 °F 78% 29.86 in 12.0 mi West 6.9 mph - N/A   Clear
7:56 AM 62.1 °F - 48.6 °F 61% 29.84 in 12.0 mi WSW 3.5 mph - N/A   Clear
8:56 AM 69.8 °F - 49.3 °F 48% 29.84 in 12.0 mi South 5.8 mph - N/A   Clear
9:56 AM 74.5 °F - 47.8 °F 39% 29.83 in 12.0 mi South 8.1 mph - N/A   Clear
10:56 AM 77.7 °F - 48.4 °F 36% 29.83 in 12.0 mi SSE 11.5 mph - N/A   Clear
11:56 AM 76.6 °F - 49.5 °F 38% 29.84 in 12.0 mi South 11.5 mph - N/A   Partly Cloudy
12:56 PM 78.8 °F - 45.5 °F 31% 29.85 in 12.0 mi South 11.5 mph - N/A   Clear
1:56 PM 79.7 °F - 45.9 °F 30% 29.85 in 12.0 mi SSE 8.1 mph - N/A   Clear
3:56 PM 76.1 °F - 45.3 °F 33% 29.86 in 12.0 mi Variable 3.5 mph - N/A Thunderstorm Thunderstorm
4:19 PM 69.8 °F - 41.0 °F 35% 30.07 in 12.0 mi WNW 28.8 mph 36.8 mph N/A Rain , Thunderstorm Light Thunderstorms and Rain
4:49 PM 69.8 °F - 48.2 °F 46% 30.06 in 12.0 mi North 11.5 mph 23.0 mph N/A Thunderstorm Mostly Cloudy
4:56 PM 71.1 °F - 43.2 °F 37% 29.88 in 12.0 mi North 15.0 mph 20.7 mph N/A Thunderstorm Mostly Cloudy
5:36 PM 75.2 °F - 46.4 °F 36% 30.04 in 12.0 mi East 5.8 mph - N/A   Partly Cloudy
5:56 PM 73.9 °F - 52.0 °F 46% 29.88 in 12.0 mi East 5.8 mph - N/A   Clear
6:39 PM 69.8 °F - 46.4 °F 43% 30.05 in 12.0 mi East 9.2 mph - N/A Thunderstorm Mostly Cloudy
6:56 PM 68.5 °F - 48.0 °F 48% 29.86 in 12.0 mi East 8.1 mph 17.3 mph N/A Thunderstorm Scattered Clouds
7:11 PM 66.2 °F - 48.2 °F 52% 30.07 in 12.0 mi ESE 6.9 mph - N/A Thunderstorm Thunderstorm
7:37 PM 68.0 °F - 46.4 °F 46% 30.09 in 12.0 mi ESE 15.0 mph 23.0 mph N/A Thunderstorm Mostly Cloudy
7:56 PM 66.7 °F - 46.2 °F 48% 29.89 in 12.0 mi ESE 16.1 mph 20.7 mph N/A Thunderstorm Mostly Cloudy
8:33 PM 64.4 °F - 46.4 °F 52% 30.13 in 12.0 mi SE 17.3 mph 25.3 mph N/A   Mostly Cloudy
8:45 PM 64.4 °F - 46.4 °F 52% 30.13 in 12.0 mi SE 17.3 mph 24.2 mph N/A Rain Light Rain Showers
8:56 PM 62.6 °F - 48.6 °F 60% 29.90 in 12.0 mi SSE 19.6 mph 24.2 mph N/A Rain Light Rain Showers
9:28 PM 62.6 °F - 48.2 °F 59% 30.13 in 12.0 mi SSE 13.8 mph 21.9 mph N/A   Mostly Cloudy
9:56 PM 61.2 °F - 47.5 °F 61% 29.89 in 12.0 mi SE 10.4 mph - 0.01 in   Mostly Cloudy
10:56 PM 56.1 °F - 49.3 °F 78% 29.88 in 12.0 mi SW 4.6 mph - N/A   Mostly Cloudy
11:56 PM 57.4 °F - 48.4 °F 72% 29.84 in 12.0 mi West 13.8 mph - N/A   Mostly Cloudy